Location: Saratoga Springs
(43.0831°N, 73.7850°W)
Time: 06:36:03
(UTC-04:00)

Vanguard 2 - Pass Details

Date: 25 April 2024
Orbit: 553 x 2914 km, 32.9° (Epoch: 17 May)

Event Time Altitude Azimuth Distance (km) Brightness Sun altitude
Rises 22:12:29 0° 181° (S) 4,451 - -22.4°
Reaches altitude 10° 22:17:18 10° 157° (SSE) 3,967 - -23.0°
Maximum altitude 22:22:12 14° 130° (SE) 4,096 - -23.6°
Drops below altitude 10° 22:28:00 10° 104° (ESE) 4,894 - -24.3°
Exits shadow 22:32:12 - 92° (E) 5,699 11.6 -24.8°
Sets 22:35:25 0° 85° (E) 6,368 11.9 -25.1°
